This is the latest recevied weather packets stored in our database for station/object SP1BMW-13. If no packets are shown the sender has not sent any weather packets the latest 10 day(s).
| Time | Temp. | Humidity | Pressure | Rain* | Wind** | Luminosity | Snow |
|---|---|---|---|---|---|---|---|
| 1777217870 | 11.67° C | 31% | 1023.4 hPa | 0 mm | 0.45 m/s, 46° | 252 W/m² | - |
| 1777217810 | 11.67° C | 32% | 1023.7 hPa | 0 mm | 0.89 m/s, 92° | 250 W/m² | - |
| 1777217752 | 11.67° C | 31% | 1023.6 hPa | 0 mm | 0.89 m/s, 37° | 232 W/m² | - |
| 1777217690 | 11.67° C | 30% | 1023.8 hPa | 0 mm | 2.24 m/s, 11° | 254 W/m² | - |
| 1777217630 | 11.67° C | 32% | 1023.8 hPa | 0 mm | 1.34 m/s, 37° | 258 W/m² | - |
| 1777217572 | 11.67° C | 32% | 1023.7 hPa | 0 mm | 0.45 m/s, 45° | 254 W/m² | - |
| 1777217510 | 11.67° C | 32% | 1023.7 hPa | 0 mm | 0.89 m/s, 51° | 272 W/m² | - |
| 1777217459 | 11.67° C | 30% | 1023.6 hPa | 0 mm | 1.79 m/s, 317° | 274 W/m² | - |
| 1777217399 | 11.67° C | 31% | 1023.4 hPa | 0 mm | 1.79 m/s, 1° | 274 W/m² | - |
| 1777217330 | 11.67° C | 31% | 1023.7 hPa | 0 mm | 1.34 m/s, 71° | 280 W/m² | - |
| 1777217270 | 11.67° C | 30% | 1023.7 hPa | 0 mm | 1.79 m/s, 10° | 284 W/m² | - |
| 1777217211 | 11.67° C | 31% | 1023.7 hPa | 0 mm | 2.24 m/s, 15° | 286 W/m² | - |
| 1777217150 | 11.67° C | 30% | 1023.7 hPa | 0 mm | 1.79 m/s, 34° | 288 W/m² | - |
| 1777217093 | 11.67° C | 30% | 1023.7 hPa | 0 mm | 0.89 m/s, 41° | 283 W/m² | - |
| 1777217033 | 11.67° C | 31% | 1023.5 hPa | 0 mm | 0.89 m/s, 97° | 290 W/m² | - |
| 1777216970 | 11.67° C | 30% | 1023.5 hPa | 0 mm | 0.89 m/s, 53° | 296 W/m² | - |
| 1777216915 | 11.67° C | 32% | 1023.6 hPa | 0 mm | 1.79 m/s, 35° | 298 W/m² | - |
| 1777216853 | 11.67° C | 31% | 1023.4 hPa | 0 mm | 0.45 m/s, 45° | 300 W/m² | - |
| 1777216790 | 11.67° C | 31% | 1023.7 hPa | 0 mm | 0.89 m/s, 46° | 306 W/m² | - |
| 1777216730 | 11.67° C | 30% | 1023.5 hPa | 0 mm | 1.79 m/s, 47° | 308 W/m² | - |
| 1777216670 | 11.67° C | 30% | 1023.8 hPa | 0 mm | 2.68 m/s, 55° | 311 W/m² | - |
| 1777216610 | 11.67° C | 30% | 1023.7 hPa | 0 mm | 2.68 m/s, 69° | 313 W/m² | - |
| 1777216550 | 11.67° C | 31% | 1023.7 hPa | 0 mm | 2.24 m/s, 76° | 305 W/m² | - |
| 1777216490 | 11.67° C | 30% | 1023.6 hPa | 0 mm | 2.24 m/s, 43° | 302 W/m² | - |
| 1777216430 | 11.67° C | 29% | 1023.7 hPa | 0 mm | 1.79 m/s, 18° | 299 W/m² | - |
* Rain latest hour (hover to see other rain measurements)
** Current wind speed in m/s (hover to see current wind gust speed)